Regional Weather Roundup
Issued by NWS

Home | Current Version | Previous Version | Text Only | Print | Product List | Glossary On
Versions: 1 2 3 4 5 6 7 8 9 10 11 12 13 14 15 16 17 18 19 20 21 22 23 24 25 26 27 28 29 30 31 32 33 34 35 36 37 38 39 40 41 42 43 44 45 46 47 48 49 50
058
ASUS43 KFSD 232010
RWRSD

WEATHER ROUNDUP FOR SOUTH DAKOTA
NATIONAL WEATHER SERVICE SIOUX FALLS SD
300 PM CDT SUN APR 23 2017

NOTE: "FAIR" INDICATES FEW OR NO CLOUDS BELOW 12,000 FEET WITH NO
SIGNIFICANT WEATHER AND/OR OBSTRUCTIONS TO VISIBILITY.


SDZ001>005-009-010-012>017-232100-
NORTHWEST AND NORTH CENTRAL SOUTH DAKOTA

CITY           SKY/WX    TMP DP  RH WIND       PRES   REMARKS
BUFFALO          N/A     49  38  65 E13       29.72F
FAITH            N/A     61  41  47 VRB6      29.76S
MOBRIDGE       SUNNY     64  39  39 E14       29.76F
$$

SDZ012>016-024>037-041>051-057-063-072>074-232100-
SOUTHWEST AND SOUTH CENTRAL SOUTH DAKOTA

CITY           SKY/WX    TMP DP  RH WIND       PRES   REMARKS
RAPID CTY ARPT SUNNY     66  40  38 N8G17     29.73F
PIERRE         SUNNY     74  36  25 SW20G26   29.71F
CUSTER         SUNNY     62  25  24 VRB6G18   29.79F
ELLSWORTH AFB  SUNNY     64  43  45 N12       29.73  HAZE
PHILIP         SUNNY     74  38  27 SW10G23   29.71F
PINE RIDGE     CLOUDY    73  35  25 SW14      29.74F
SPEARFISH      FAIR      59  45  58 E9        29.76F
WINNER         FAIR      74  31  20 S25G38    29.78F
$$

SDZ004>011-016>023-039-040-232100-
NORTHEAST SOUTH DAKOTA

CITY           SKY/WX    TMP DP  RH WIND       PRES   REMARKS
ABERDEEN       CLOUDY    65  34  31 S15G21    29.84F
WATERTOWN      PTSUNNY   67  32  27 S23G29    29.87F
BROOKINGS      CLOUDY    68  32  26 S17G31    29.89F
SISSETON         N/A     61  40  45 SE7       29.88F
$$

SDZ017-020-022-023-036>040-048>070-232100-
SOUTHEAST SOUTH DAKOTA

CITY           SKY/WX    TMP DP  RH WIND       PRES   REMARKS
SIOUX FALLS    CLOUDY    67  37  33 S20G31    29.92F
HURON          CLOUDY    70  32  24 S17G24    29.83F
CHAMBERLAIN    CLOUDY    72  35  25 S23G31    29.81F
MITCHELL       PTSUNNY   72  27  18 S28G36    29.85F
YANKTON        CLOUDY    72  30  21 S22G30    29.90F
$$

ABBREVIATIONS USED IN REMARKS
   TC - TEMPERATURE IN CELSIUS
  WCI - WIND CHILL INDEX
   HX - HEAT INDEX
  VSB - VISIBILITY





USA.gov is the U.S. government's official web portal to all federal, state and local government web resources and services.